Location: Danville Conservation Area
(38.8674°N, 91.5143°W)
Time: 01:27:06
(UTC-06:00)

Envisat - Pass Details

Date: 29 November 2021
Orbit: 764 x 766 km, 98.2° (Epoch: 23 January)

Event Time Altitude Azimuth Distance (km) Brightness Sun altitude
Rises 17:13:26 0° 198° (SSW) 3,216 6.9 -5.9°
Reaches altitude 10° 17:16:08 10° 212° (SSW) 2,295 6.4 -6.3°
Maximum altitude 17:20:12 24° 265° (W) 1,534 5.6 -7.1°
Drops below altitude 10° 17:24:19 10° 320° (NW) 2,309 5.7 -7.8°
Sets 17:27:03 0° 334° (NNW) 3,240 6.3 -8.3°
